This is the latest recevied weather packets stored in our database for station/object IW2MUC-12. If no packets are shown the sender has not sent any weather packets the latest 10 day(s).
| Time | Temp. | Humidity | Pressure | Rain* | Wind** | Luminosity | Snow |
|---|---|---|---|---|---|---|---|
| 1778150812 | 28.33° C | 56% | 986 hPa | - | - | - | - |
| 1778150208 | 28.33° C | 56% | 986 hPa | - | - | - | - |
| 1778149604 | 28.33° C | 56% | 986 hPa | - | - | - | - |
| 1778149000 | 28.33° C | 56% | 986 hPa | - | - | - | - |
| 1778148396 | 28.33° C | 56% | 986 hPa | - | - | - | - |
| 1778147792 | 27.78° C | 57% | 987 hPa | - | - | - | - |
| 1778147188 | 26.67° C | 57% | 987 hPa | - | - | - | - |
| 1778146584 | 25.56° C | 57% | 987 hPa | - | - | - | - |
| 1778145980 | 25° C | 57% | 987 hPa | - | - | - | - |
| 1778145376 | 24.44° C | 58% | 987 hPa | - | - | - | - |
| 1778144772 | 23.89° C | 59% | 987 hPa | - | - | - | - |
| 1778144168 | 22.78° C | 60% | 987 hPa | - | - | - | - |
| 1778143564 | 21.67° C | 60% | 987 hPa | - | - | - | - |
| 1778142960 | 21.11° C | 56% | 987 hPa | - | - | - | - |
| 1778142356 | 20° C | 54% | 987 hPa | - | - | - | - |
| 1778141752 | 19.44° C | 54% | 987 hPa | - | - | - | - |
| 1778140544 | 18.33° C | 56% | 988 hPa | - | - | - | - |
| 1778139940 | 17.22° C | 57% | 988 hPa | - | - | - | - |
| 1778139336 | 16.11° C | 56% | 985 hPa | - | - | - | - |
| 1778138732 | 16.11° C | 54% | 987 hPa | - | - | - | - |
| 1778138128 | 16.11° C | 53% | 987 hPa | - | - | - | - |
| 1778137524 | 16.11° C | 53% | 987 hPa | - | - | - | - |
| 1778136920 | 16.11° C | 53% | 986 hPa | - | - | - | - |
| 1778096808 | 13.33° C | 55% | 985 hPa | - | - | - | - |
| 1778096204 | 13.33° C | 55% | 985 hPa | - | - | - | - |
* Rain since midnight (hover to see other rain measurements)
** Current wind speed in m/s (hover to see current wind gust speed)